{"data":{"norad_id":68452,"intl_designator":"2026-067AN","name":"IRIDE-MS1-EAGLET 2-16","alt_names":[],"object_type":"PAYLOAD","status":"ACTIVE","operator":null,"country":"IT","launch_date":"2026-03-30","launch_site_code":"AFWTR","launch_vehicle":null,"mission":null,"orbit_class":"UNKNOWN","rcs_meters":null,"size_class":null,"mass_kg":null,"dimensions":null,"purposes":[],"wikipedia_slug":null,"has_3d_model":false,"image_url":null,"decayed_at":null,"tle_current":{"epoch":"2026-09-19T07:42:35.219808Z","epoch_age_seconds":171534,"freshness":"FRESH","line1":"1 68452U 26067AN  26262.32124097  .00004566  00000+0  22058-3 0  9992","line2":"2 68452  97.4646 219.4866 0006116  90.7385 269.4550 15.19128536 26229","mean_motion":15.19128536,"eccentricity":0.0006116,"inclination_deg":97.4646,"raan_deg":219.4866,"arg_perigee_deg":90.7385,"mean_anomaly_deg":269.455,"bstar":0.00022058,"rev_number":2622,"period_min":94.791188887258,"perigee_km":504.26122195798,"apogee_km":512.68492339888,"semimajor_km":6886.6100726784,"source":"CELESTRAK","updated_at":"2026-09-20T09:00:24.209023Z"}}}